[[{"header":{"parameterUnit":"m.s-1","parameterCategory":1,"la1":30.2991,"la2":30.254,"lo1":-89.0895,"lo2":-89.0444,"dy":0.0017,"dx":0.0017,"nx":28,"ny":28,"refTime":"2023-09-06T03:00:00:Z","depth":0,"parameterNumber":2,"parameterNumberName":"U-component_of_WINDS"},"data":[0,0,0,0,0,0,0,0,0,0,0,0,0,0,0,0,0,0,0,0,0,0,0,0,0,0,0,0,0,0,0,0,0,0,0,0,0,0,0,0,0,0,0,0,0,0,0,0,0,0,0,0,0,0,0,0,0,0,-0.1896,-0.1895,0,-0.1824,-0.1823,-0.1822,-0.177,-0.177,-0.1769,-0.1769,-0.1695,-0.1694,-0.1692,0,0,0,0,0,0,0,0,0,0,0,0,0,-0.1989,-0.1987,-0.1896,-0.1895,-0.1894,-0.1824,-0.1823,-0.1822,-0.177,-0.177,-0.1769,-0.1769,-0.1696,-0.1694,-0.1692,0,0,0,0,0,0,0,0,0,0,0,0,0,-0.1936,-0.1987,-0.1896,-0.186,-0.1856,-0.1824,-0.1823,-0.1822,-0.177,-0.177,-0.1769,-0.1769,-0.1697,-0.1694,-0.1692,-0.169,0,0,-0.1685,-0.1684,0,0,0,0,0,0,0,0,-0.1939,-0.1932,-0.1866,-0.1862,-0.1858,-0.1805,-0.1829,-0.1778,-0.1771,-0.1803,-0.1769,-0.1768,-0.1733,-0.1727,-0.1715,-0.1687,-0.1684,-0.1685,-0.1683,-0.1682,-0.1682,0,0,0,0,0,0,0,-0.1943,-0.1935,-0.1867,-0.1865,-0.186,-0.1847,-0.1839,-0.1819,-0.1772,-0.18,-0.1796,-0.1788,-0.173,-0.1718,-0.1713,-0.1683,-0.1685,-0.1683,-0.1681,-0.168,-0.165,-0.165,0,0,0,0,0,0,-0.1952,-0.1939,-0.1869,-0.1865,-0.1897,-0.1846,-0.1837,-0.1823,-0.1772,-0.1764,-0.1789,-0.1786,-0.1722,-0.1716,-0.171,-0.1705,-0.1682,-0.168,-0.1679,-0.1649,-0.165,-0.1651,0,0,0,0,0,0,-0.1954,-0.1946,-0.1872,-0.1901,-0.189,-0.1845,-0.183,-0.1822,-0.1809,-0.1764,-0.1755,-0.1784,-0.1721,-0.1714,-0.1696,-0.1702,-0.1679,-0.1677,-0.1649,-0.1649,-0.165,-0.1696,0,0,0,0,0,0,-0.1957,-0.1947,-0.1946,-0.1901,-0.1889,-0.1859,-0.183,-0.1821,-0.1805,-0.1801,-0.1757,-0.175,-0.172,-0.17,-0.1693,-0.1698,-0.1675,-0.1648,-0.1649,-0.165,-0.1693,-0.1698,-0.1702,0,0,0,0,0,-0.196,-0.1962,-0.1946,-0.1938,-0.1887,-0.186,-0.1853,-0.1819,-0.1806,-0.1804,-0.1775,-0.1751,-0.1702,-0.1698,-0.1691,-0.1695,-0.1647,-0.1649,-0.165,-0.1691,-0.1697,-0.1702,0,0,0,0,0,0,-0.2009,-0.1955,-0.1938,-0.1924,-0.1897,-0.1851,-0.1848,-0.1826,-0.1801,-0.1798,-0.1757,-0.1747,-0.1734,-0.1713,-0.1709,-0.1691,-0.1672,-0.1672,-0.1706,-0.1711,-0.1715,-0.1721,-0.1673,0,0,0,0,0,-0.2018,-0.2001,-0.1955,-0.1947,-0.1935,-0.1894,-0.1881,-0.1857,-0.1827,-0.1815,-0.1785,-0.1757,-0.1735,-0.1721,-0.1699,-0.169,-0.168,-0.1689,-0.1693,-0.1697,-0.1698,-0.1691,-0.1695,-0.1655,-0.1655,-0.1655,0,0,-0.2037,-0.2005,-0.1997,-0.1956,-0.1932,-0.1915,-0.1885,-0.1868,-0.1855,-0.1812,-0.1794,-0.1771,-0.1737,-0.1723,-0.1716,-0.1705,-0.1706,-0.1699,-0.1702,-0.17,-0.1693,-0.1697,-0.1701,-0.1656,-0.1656,-0.1656,0,0,-0.2063,-0.2037,-0.2028,-0.2005,-0.1969,-0.1942,-0.194,-0.1897,-0.188,-0.1861,-0.1829,-0.1812,-0.1776,-0.1753,-0.1736,-0.1753,-0.173,-0.1747,-0.177,-0.1764,-0.1767,-0.177,-0.1776,-0.1779,-0.1748,-0.1748,-0.1748,0,-0.2091,-0.2064,-0.2027,-0.2012,-0.1995,-0.1956,-0.1947,-0.1926,-0.1884,-0.1874,-0.1862,-0.1815,-0.1789,-0.177,-0.1775,-0.1762,-0.1759,-0.1752,-0.177,-0.1772,-0.1774,-0.178,-0.1782,-0.175,-0.175,-0.175,-0.1749,0,-0.21,-0.2082,-0.2079,-0.204,-0.2023,-0.2011,-0.1973,-0.196,-0.1937,-0.1911,-0.1892,-0.186,-0.183,-0.1824,-0.1801,-0.1801,-0.1796,-0.1777,-0.1757,-0.1781,-0.1785,-0.1787,-0.1754,-0.1753,-0.1752,-0.1751,0,0,-0.2156,-0.2096,-0.2096,-0.2077,-0.2035,-0.202,-0.2006,-0.1977,-0.1967,-0.194,-0.1927,-0.1897,-0.188,-0.1861,-0.1836,-0.1831,-0.1847,-0.1813,-0.1812,-0.1821,-0.1846,-0.186,-0.1863,-0.1831,-0.1831,-0.1832,-0.1849,0,-0.2175,-0.2149,-0.2115,-0.21,-0.2083,-0.2045,-0.2033,-0.2006,-0.1981,-0.1963,-0.1935,-0.1915,-0.1894,-0.1882,-0.1875,-0.1847,-0.1852,-0.1845,-0.182,-0.1819,-0.183,-0.1866,-0.1881,-0.1899,-0.185,-0.185,-0.1851,0,-0.2195,-0.217,-0.2153,-0.2112,-0.2103,-0.2093,-0.2064,-0.2047,-0.2015,-0.1997,-0.1977,-0.1949,-0.1933,-0.1914,-0.1892,-0.1888,-0.1875,-0.186,-0.1859,-0.1856,-0.1837,-0.1864,-0.1904,-0.1907,-0.1853,-0.1853,-0.1853,0,-0.2238,-0.2199,-0.2184,-0.217,-0.2121,-0.2115,-0.2094,-0.2062,-0.2046,-0.2021,-0.201,-0.1983,-0.1968,-0.1948,-0.1914,-0.1904,-0.1895,-0.1874,-0.188,-0.1881,-0.1881,-0.1881,-0.1919,-0.1872,-0.1872,-0.1872,-0.1872,0,-0.2264,-0.2256,-0.2203,-0.2194,-0.2183,-0.2144,-0.2135,-0.2111,-0.2082,-0.2068,-0.2033,-0.202,-0.1976,-0.1958,-0.1931,-0.1917,-0.191,-0.1896,-0.1889,-0.1899,-0.1901,-0.1891,-0.1889,-0.1872,-0.1872,-0.1872,-0.1872,0,-0.231,-0.2275,-0.2256,-0.2211,-0.22,-0.2194,-0.2156,-0.2146,-0.2119,-0.2101,-0.2095,-0.2053,-0.203,-0.1994,-0.196,-0.1942,-0.1932,-0.192,-0.1943,-0.1939,-0.1948,-0.1948,-0.1982,-0.1984,-0.1935,-0.1935,-0.1936,0,-0.233,-0.2322,-0.2277,-0.2265,-0.2245,-0.2226,-0.221,-0.2171,-0.2156,-0.2119,-0.2113,-0.2088,-0.2065,-0.203,-0.1997,-0.1971,-0.1959,-0.1972,-0.1955,-0.1965,-0.196,-0.1961,-0.196,-0.1977,-0.1977,-0.1978,-0.1978,0,-0.2369,-0.2351,-0.233,-0.2302,-0.2284,-0.226,-0.2235,-0.2227,-0.2182,-0.2167,-0.2143,-0.2126,-0.2091,-0.2067,-0.2036,-0.2014,-0.1989,-0.1984,-0.1984,-0.1995,-0.2009,-0.2002,-0.1955,-0.1984,-0.1983,-0.1983,-0.1983,-0.1982,-0.2402,-0.2394,-0.2361,-0.2338,-0.2314,-0.2292,-0.228,-0.2251,-0.2231,-0.22,-0.2178,-0.2156,-0.2123,-0.208,-0.206,-0.2041,-0.203,-0.2031,-0.2031,-0.2032,-0.2036,-0.2012,-0.2036,-0.2035,-0.2035,-0.2035,-0.2035,0,-0.244,-0.2416,-0.2396,-0.2361,-0.2343,-0.232,-0.2291,-0.2278,-0.2258,-0.223,-0.2209,-0.2181,-0.2157,-0.2121,-0.2094,-0.2087,-0.2074,-0.2081,-0.2082,-0.2077,-0.2047,-0.205,-0.2091,-0.2091,-0.2091,-0.2091,-0.2091,-0.2091,-0.2457,-0.2442,-0.2421,-0.2394,-0.237,-0.2348,-0.2333,-0.2312,-0.2289,-0.226,-0.224,-0.2217,-0.2186,-0.2156,-0.2132,-0.2122,-0.2114,-0.2125,-0.2112,-0.2084,-0.2079,-0.2074,-0.2077,-0.2123,-0.2123,-0.2143,-0.2143,-0.2143]},{"header":{"parameterUnit":"m.s-1","parameterCategory":1,"la1":30.2991,"la2":30.254,"lo1":-89.0895,"lo2":-89.0444,"dy":0.0017,"dx":0.0017,"nx":28,"ny":28,"refTime":"2023-09-06T03:00:00:Z","depth":0,"parameterNumber":3,"parameterNumberName":"V-component_of_WINDS"},"data":[0,0,0,0,0,0,0,0,0,0,0,0,0,0,0,0,0,0,0,0,0,0,0,0,0,0,0,0,0,0,0,0,0,0,0,0,0,0,0,0,0,0,0,0,0,0,0,0,0,0,0,0,0,0,0,0,0,0,1.4596,1.4596,0,1.4631,1.4632,1.4632,1.4635,1.4634,1.4634,1.4633,1.4667,1.4668,1.467,0,0,0,0,0,0,0,0,0,0,0,0,0,1.4529,1.453,1.4596,1.4596,1.4597,1.4631,1.4632,1.4632,1.4635,1.4634,1.4634,1.4633,1.4667,1.4668,1.467,0,0,0,0,0,0,0,0,0,0,0,0,0,1.4561,1.4531,1.4596,1.4602,1.4603,1.4631,1.4632,1.4632,1.4635,1.4634,1.4634,1.4633,1.4666,1.4668,1.467,1.4693,0,0,1.4676,1.4677,0,0,0,0,0,0,0,0,1.4559,1.4563,1.4601,1.4602,1.4603,1.4628,1.462,1.4652,1.4635,1.4623,1.4633,1.4633,1.4654,1.4657,1.4665,1.4695,1.4696,1.4676,1.4677,1.4678,1.4678,0,0,0,0,0,0,0,1.4557,1.4561,1.461,1.4601,1.4603,1.4603,1.4607,1.4627,1.4641,1.4624,1.4624,1.4628,1.4655,1.4663,1.4666,1.4697,1.4676,1.4678,1.4679,1.4679,1.4747,1.4748,0,0,0,0,0,0,1.4553,1.456,1.4609,1.4611,1.4579,1.4605,1.4609,1.462,1.4641,1.4644,1.4629,1.4628,1.466,1.4664,1.4667,1.4696,1.4678,1.468,1.4681,1.4747,1.4747,1.4748,0,0,0,0,0,0,1.4552,1.4558,1.4607,1.4585,1.4592,1.4606,1.4619,1.4621,1.463,1.4645,1.4647,1.4635,1.466,1.4664,1.4687,1.4697,1.468,1.4682,1.4746,1.4747,1.4748,1.4753,0,0,0,0,0,0,1.455,1.4557,1.4566,1.4586,1.4593,1.4627,1.462,1.4623,1.4633,1.4633,1.4651,1.4654,1.466,1.4684,1.4689,1.4699,1.4684,1.4745,1.4746,1.4748,1.4752,1.4754,1.4756,0,0,0,0,0,1.4548,1.4566,1.4567,1.4573,1.4605,1.4627,1.4631,1.4639,1.4634,1.4643,1.4653,1.4653,1.4695,1.4686,1.4692,1.4703,1.4744,1.4746,1.4747,1.4751,1.4753,1.4756,0,0,0,0,0,0,1.4546,1.4568,1.457,1.4595,1.4609,1.4628,1.4639,1.4641,1.4657,1.4656,1.4664,1.4668,1.4691,1.4699,1.4689,1.4726,1.4719,1.4722,1.472,1.4723,1.4724,1.4722,1.4685,0,0,0,0,0,1.4549,1.4566,1.4584,1.4605,1.4612,1.4625,1.4635,1.464,1.4655,1.466,1.4672,1.4686,1.4703,1.4713,1.4729,1.4753,1.4757,1.4764,1.4765,1.4767,1.4769,1.4783,1.4786,1.4753,1.4753,1.4753,0,0,1.4555,1.4569,1.4579,1.4605,1.4617,1.4634,1.463,1.4648,1.466,1.4663,1.4685,1.4694,1.471,1.4734,1.4745,1.4742,1.4779,1.4769,1.477,1.4771,1.4785,1.4788,1.479,1.4754,1.4754,1.4754,0,0,1.4573,1.4586,1.4605,1.4617,1.4635,1.4644,1.4648,1.4667,1.4673,1.4696,1.4698,1.4713,1.4741,1.4753,1.4763,1.4787,1.4788,1.4792,1.4802,1.4815,1.4818,1.482,1.4829,1.4832,1.4794,1.4794,1.4794,0,1.4578,1.4604,1.4614,1.4632,1.4643,1.4648,1.4666,1.4677,1.47,1.4707,1.4704,1.474,1.4751,1.4777,1.4784,1.4791,1.4796,1.479,1.4817,1.4819,1.4821,1.483,1.4833,1.4795,1.4795,1.4795,1.4795,0,1.4609,1.4627,1.464,1.4662,1.4675,1.4693,1.4705,1.4717,1.4721,1.473,1.4753,1.4767,1.4786,1.4793,1.4796,1.482,1.4817,1.4815,1.4808,1.4825,1.4833,1.4836,1.4795,1.4795,1.4795,1.4795,0,0,1.4627,1.4655,1.4659,1.467,1.4691,1.4705,1.4724,1.4744,1.4754,1.4769,1.4785,1.4809,1.4808,1.4819,1.4824,1.4836,1.4854,1.4832,1.4833,1.4836,1.4881,1.4883,1.4886,1.4855,1.4856,1.4856,1.488,0,1.4648,1.4682,1.4691,1.472,1.4737,1.4742,1.4758,1.4773,1.4782,1.4797,1.4807,1.4824,1.4821,1.4827,1.4839,1.485,1.4864,1.4848,1.4869,1.487,1.4865,1.489,1.4891,1.4913,1.4883,1.4884,1.4884,0,1.4676,1.4694,1.4724,1.4744,1.4752,1.4766,1.4785,1.48,1.4817,1.4823,1.4836,1.484,1.4859,1.4852,1.4879,1.4868,1.4877,1.4884,1.4885,1.4886,1.4878,1.4892,1.492,1.4923,1.4889,1.4889,1.4888,0,1.4686,1.4717,1.474,1.4749,1.4772,1.4782,1.4792,1.4809,1.482,1.4837,1.4844,1.4863,1.4872,1.4886,1.4896,1.4889,1.4922,1.4915,1.4926,1.4926,1.4932,1.4932,1.4961,1.4939,1.4939,1.4939,1.4939,0,1.4709,1.4727,1.4745,1.4758,1.4779,1.479,1.481,1.482,1.4835,1.485,1.4856,1.487,1.4882,1.4897,1.4905,1.4926,1.493,1.4935,1.4937,1.4934,1.4934,1.494,1.4939,1.494,1.494,1.494,1.4939,0,1.4723,1.4735,1.476,1.4781,1.4786,1.4801,1.4818,1.4832,1.4842,1.4861,1.4866,1.4881,1.49,1.4911,1.4935,1.494,1.4963,1.4964,1.4958,1.4958,1.4969,1.4968,1.5004,1.5009,1.4984,1.4984,1.4984,0,1.4736,1.475,1.4773,1.4784,1.4795,1.4813,1.4825,1.4836,1.4848,1.4869,1.488,1.49,1.4916,1.4946,1.4959,1.4977,1.4978,1.499,1.4981,1.4978,1.4978,1.4977,1.4979,1.4991,1.4991,1.4991,1.4991,0,1.4758,1.4764,1.4781,1.4801,1.4816,1.4832,1.4848,1.4857,1.487,1.4884,1.4904,1.4917,1.4942,1.4961,1.4981,1.499,1.4993,1.4994,1.4998,1.4995,1.4991,1.4994,1.4961,1.4993,1.4993,1.4993,1.4993,1.4993,1.4772,1.4785,1.4804,1.4823,1.4837,1.4852,1.4865,1.4877,1.4894,1.4916,1.4922,1.4943,1.496,1.4986,1.4997,1.5013,1.5011,1.5017,1.5018,1.5019,1.5019,1.4989,1.5017,1.5017,1.5017,1.5017,1.5017,0,1.4794,1.4807,1.4824,1.4847,1.4863,1.4865,1.4883,1.4895,1.4914,1.493,1.4946,1.497,1.4989,1.5003,1.5023,1.5033,1.5035,1.5038,1.5037,1.5039,1.502,1.5015,1.5036,1.5036,1.5036,1.5036,1.5036,1.5036,1.4808,1.483,1.4838,1.4868,1.488,1.4901,1.4912,1.4925,1.4938,1.4964,1.4981,1.499,1.5006,1.5026,1.5044,1.5048,1.5055,1.5057,1.5061,1.5043,1.5041,1.5039,1.5034,1.5059,1.5059,1.5079,1.5079,1.508]}]]